CAPE
5 16 9 5 12 16 24 5 9 33 97 60 69 177 166 24 0 0 0 0 0 0 0 0 0 0 0 0 0 0 0 0 0 0 0 0 0 0 0 0 0 0 0 0 0
6 6 2 6 15 9 29 29 94 49 112 183 200 226 62 9 1 0 0 5 65 1 0 0 0 0 0 0 0 0 0 0 0 0 0 0 0 0 0 0 0 0 0 0 0
0 0 4 7 14 42 37 40 90 123 138 173 227 168 5 0 0 0 22 16 37 8 0 0 0 0 0 0 0 0 0 0 0 0 0 0 0 0 0 0 0 0 0 0 0
0 0 0 6 4 0 0 0 8 25 73 64 63 44 4 0 0 0 0 0 10 4 0 0 0 0 0 0 0 0 0 0 0 0 0 0 0 0 0 0 0 0 0 0 0
0 0 0 1 0 0 2 13 2 0 22 32 11 6 0 0 0 0 0 0 25 0 0 0 0 0 0 0 0 0 0 0 0 0 0 0 0 0 0 0 0 0 0 0 0
0 0 0 0 0 0 0 0 14 15 23 38 62 43 0 0 0 0 0 0 2 0 0 0 0 0 0 0 0 0 0 0 0 0 0 0 0 0 0 0 0 0 0 0 0
0 0 0 0 0 0 0 0 0 0 0 0 1 0 0 0 0 0 0 0 0 0 0 0 0 0 0 0 0 0 0 0 0 0 0 0 0 0 0 0 0 0 0 0 0
0 0 0 0 0 0 0 0 0 0 0 0 1 0 0 0 0 0 0 0 0 0 0 0 0 0 0 0 0 0 0 0 0 0 0 0 0 0 0 0 0 0 0 0 0
0 0 0 0 0 0 0 0 0 0 0 0 0 0 0 0 0 0 0 0 0 0 0 0 0 0 0 0 0 0 0 0 0 0 0 0 0 0 0 0 0 0 0 0 0
0 0 0 0 0 0 0 0 0 0 0 0 0 0 0 0 0 0 0 0 0 0 0 0 0 0 0 0 0 0 0 0 0 0 0 0 0 0 0 0 0 0 0 0 0
0 0 0 0 0 0 0 0 0 0 0 0 0 0 0 0 0 0 0 0 0 0 0 0 0 0 0 0 0 0 0 0 0 0 0 0 0 0 0 0 0 0 0 0 0
0 0 0 0 0 0 0 0 0 0 0 0 0 0 0 0 0 0 0 0 0 0 0 0 0 0 0 0 0 0 0 0 0 0 0 0 0 0 0 0 0 0 0 0 0
0 0 0 0 0 0 0 0 0 0 0 0 0 0 0 0 0 0 0 0 0 0 0 0 0 0 0 0 0 0 0 0 0 0 0 0 0 0 0 0 0 0 0 0 0
0 0 0 0 0 0 0 0 0 0 0 0 0 0 0 0 0 0 0 0 0 0 0 0 0 0 0 0 0 0 0 0 0 0 0 0 0 0 0 0 0 0 0 0 0
0 0 0 0 0 0 0 0 0 0 0 0 0 0 0 0 0 0 0 0 0 0 0 0 0 0 0 0 0 0 0 0 0 0 0 0 0 0 0 0 0 0 0 0 0
0 0 0 0 0 0 0 0 0 0 0 0 0 0 0 0 0 0 0 0 0 0 0 0 0 0 0 0 0 0 0 0 0 0 0 0 0 0 0 0 0 0 0 0 0
0 0 0 0 0 0 0 0 0 0 0 0 0 0 0 0 0 0 0 0 0 0 0 0 0 0 0 0 0 0 0 0 0 0 0 0 0 0 0 0 0 0 0 0 0
0 0 0 0 0 0 0 0 0 0 0 0 0 0 0 0 0 0 0 0 0 0 0 0 0 0 0 0 0 0 0 0 0 0 0 0 0 0 0 0 0 0 0 0 0
0 0 0 0 0 0 0 0 0 0 0 0 0 0 0 0 0 0 0 0 0 0 0 0 0 0 0 0 0 0 0 0 0 0 0 0 0 0 0 0 0 0 0 0 0
0 0 0 0 0 0 0 0 0 0 0 0 0 0 0 0 0 0 0 0 0 0 0 0 0 0 0 0 0 0 0 0 0 0 0 0 0 0 0 0 0 0 0 0 0
0 0 0 0 0 0 0 0 0 0 0 0 0 0 0 0 0 0 0 0 0 0 0 0 0 0 0 0 0 0 0 0 0 0 0 0 0 0 0 0 0 0 0 0 0
0 0 0 0 0 0 0 0 0 0 0 0 0 0 0 0 0 0 0 0 0 0 0 0 0 0 0 0 0 0 0 0 0 0 0 0 0 0 0 0 0 0 0 0 0
0 0 0 0 0 0 0 0 0 0 0 0 0 0 0 0 0 0 0 0 0 0 0 0 0 0 0 0 0 0 0 0 0 0 0 0 0 0 0 0 0 0 0 0 0
0 0 0 0 0 0 0 0 0 0 0 0 0 0 0 0 0 0 0 0 0 0 0 0 0 0 0 0 0 0 0 0 0 0 0 0 0 0 0 0 0 0 0 0 0
0 0 0 0 0 0 0 0 0 0 0 0 0 0 0 0 0 0 0 0 0 0 0 0 0 0 0 0 0 0 0 0 0 0 0 0 0 0 0 0 0 0 0 0 0
0 0 0 0 0 0 0 0 0 0 0 0 0 0 0 0 0 0 0 0 0 0 0 0 0 0 0 0 0 0 0 0 0 0 0 0 0 0 0 0 0 0 0 0 0
0 0 0 0 0 0 0 0 0 0 0 0 0 0 0 0 0 0 0 0 0 0 0 0 0 0 0 0 0 0 0 0 0 0 0 0 0 0 0 0 0 0 0 0 0
CIN
-0 -0 -0 -0 -3 -14 -4 -3 -19 -19 -7 -12 -22 -1 -3 -118 -0 -44 -0 -0 -0 -0 -0 -0 -0 -0 -0 -0 -0 -0 -0 -0 -0 -0 -0 -0 -0 -0 -0 -0 -0 -0 -0 -0 -0
-0 -0 -0 -0 -0 -20 -8 -8 -19 -29 -15 -0 -0 -0 -19 -80 -52 -0 -29 -25 -12 -6 -0 -0 -0 -0 -0 -0 -0 -0 -0 -0 -0 -0 -0 -0 -0 -0 -0 -0 -0 -0 -0 -0 -0
-0 -0 -4 -0 -0 -0 -27 -4 -1 -4 -11 -4 -1 -11 -46 -0 -0 -0 -82 -40 -2 -22 -0 -0 -0 -0 -0 -0 -0 -0 -0 -0 -0 -0 -0 -0 -0 -0 -0 -0 -0 -0 -0 -0 -0
-0 -0 -0 -11 -7 -0 -0 -0 -20 -9 -7 -10 -7 -17 -39 -0 -0 -0 -0 -0 -7 -39 -0 -0 -0 -0 -0 -0 -0 -0 -0 -0 -0 -0 -0 -0 -0 -0 -0 -0 -0 -0 -0 -0 -0
-0 -0 -0 -57 -0 -0 -14 -27 -14 -5 -36 -13 -20 -22 -0 -0 -0 -0 -0 -0 -17 -0 -0 -0 -0 -0 -0 -0 -0 -0 -0 -0 -0 -0 -0 -0 -0 -0 -0 -0 -0 -0 -0 -0 -0
-0 -0 -0 -0 -0 -0 -0 -0 -47 -37 -40 -33 -35 -51 -0 -0 -0 -0 -0 -12 -19 -0 -0 -0 -0 -0 -0 -0 -0 -0 -0 -0 -0 -0 -0 -0 -0 -0 -0 -0 -0 -0 -0 -0 -0
-0 -0 -0 -0 -0 -0 -0 -0 -0 -9 -0 -0 -5 -3 -0 -0 -0 -0 -0 -0 -0 -0 -0 -0 -0 -0 -0 -0 -0 -0 -0 -0 -0 -0 -0 -0 -0 -0 -0 -0 -0 -0 -0 -0 -0
-0 -0 -0 -0 -0 -0 -0 -0 -0 -0 -0 -0 -41 -0 -0 -0 -0 -0 -0 -0 -0 -0 -0 -0 -0 -0 -0 -0 -0 -0 -0 -0 -0 -0 -0 -0 -0 -0 -0 -0 -0 -0 -0 -0 -0
-0 -0 -0 -0 -0 -0 -0 -0 -0 -0 -0 -0 -0 -0 -0 -0 -0 -0 -0 -0 -0 -0 -0 -0 -0 -0 -0 -0 -0 -0 -0 -0 -0 -0 -0 -0 -0 -0 -0 -0 -0 -0 -0 -0 -0
-0 -0 -0 -0 -0 -0 -0 -0 -0 -0 -0 -0 -0 -0 -0 -0 -0 -0 -0 -0 -0 -0 -0 -0 -0 -0 -0 -0 -0 -0 -0 -0 -0 -0 -0 -0 -0 -0 -0 -0 -0 -0 -0 -0 -0
-0 -0 -0 -0 -0 -0 -0 -0 -0 -0 -0 -0 -0 -0 -0 -0 -0 -0 -0 -0 -0 -0 -0 -0 -0 -0 -0 -0 -0 -0 -0 -0 -0 -0 -0 -0 -0 -0 -0 -0 -0 -0 -0 -0 -0
-0 -0 -0 -0 -0 -0 -0 -0 -0 -0 -0 -0 -0 -0 -0 -0 -0 -0 -0 -0 -0 -0 -0 -0 -0 -0 -0 -0 -0 -0 -0 -0 -0 -0 -0 -0 -0 -0 -0 -0 -0 -0 -0 -0 -0
-0 -0 -0 -0 -0 -0 -0 -0 -0 -0 -0 -0 -0 -0 -0 -0 -0 -0 -0 -0 -0 -0 -0 -0 -0 -0 -0 -0 -0 -0 -0 -0 -0 -0 -0 -0 -0 -0 -0 -0 -0 -0 -0 -0 -0
-0 -0 -0 -0 -0 -0 -0 -0 -0 -0 -0 -0 -0 -0 -0 -0 -0 -0 -0 -0 -0 -0 -0 -0 -0 -0 -0 -0 -0 -0 -0 -0 -0 -0 -0 -0 -0 -0 -0 -0 -0 -0 -0 -0 -0
-0 -0 -0 -0 -0 -0 -0 -0 -0 -0 -0 -0 -0 -0 -0 -0 -0 -0 -0 -0 -0 -0 -0 -0 -0 -0 -0 -0 -0 -0 -0 -0 -0 -0 -0 -0 -0 -0 -0 -0 -0 -0 -0 -0 -0
-0 -0 -0 -0 -0 -0 -0 -0 -0 -0 -0 -0 -0 -0 -0 -0 -0 -0 -0 -0 -0 -0 -0 -0 -0 -0 -0 -0 -0 -0 -0 -0 -0 -0 -0 -0 -0 -0 -0 -0 -0 -0 -0 -0 -0
-0 -0 -0 -0 -0 -0 -0 -0 -0 -0 -0 -0 -0 -0 -0 -0 -0 -0 -0 -0 -0 -0 -0 -0 -0 -0 -0 -0 -0 -0 -0 -0 -0 -0 -0 -0 -0 -0 -0 -0 -0 -0 -0 -0 -0
-0 -0 -0 -0 -0 -0 -0 -0 -0 -0 -0 -0 -0 -0 -0 -0 -0 -0 -0 -0 -0 -0 -0 -0 -0 -0 -0 -0 -0 -0 -0 -0 -0 -0 -0 -0 -0 -0 -0 -0 -0 -0 -0 -0 -0
-0 -0 -0 -0 -0 -0 -0 -0 -0 -0 -0 -0 -0 -0 -0 -0 -0 -0 -0 -0 -0 -0 -0 -0 -0 -0 -0 -0 -0 -0 -0 -0 -0 -0 -0 -0 -0 -0 -0 -0 -0 -0 -0 -0 -0
-0 -0 -0 -0 -0 -0 -0 -0 -0 -0 -0 -0 -0 -0 -0 -0 -0 -0 -0 -0 -0 -0 -0 -0 -0 -0 -0 -0 -0 -0 -0 -0 -0 -0 -0 -0 -0 -0 -0 -0 -0 -0 -0 -0 -0
-0 -0 -0 -0 -0 -0 -0 -0 -0 -0 -0 -0 -0 -0 -0 -0 -0 -0 -0 -0 -0 -0 -0 -0 -0 -0 -0 -0 -0 -0 -0 -0 -0 -0 -0 -0 -0 -0 -0 -0 -0 -0 -0 -0 -0
-0 -0 -0 -0 -0 -0 -0 -0 -0 -0 -0 -0 -0 -0 -0 -0 -0 -0 -0 -0 -0 -0 -0 -0 -0 -0 -0 -0 -0 -0 -0 -0 -0 -0 -0 -0 -0 -0 -0 -0 -0 -0 -0 -0 -0
-0 -0 -0 -0 -0 -0 -0 -0 -0 -0 -0 -0 -0 -0 -0 -0 -0 -0 -0 -0 -0 -0 -0 -0 -0 -0 -0 -0 -0 -0 -0 -0 -0 -0 -0 -0 -0 -0 -0 -0 -0 -0 -0 -0 -0
-0 -0 -0 -0 -0 -0 -0 -0 -0 -0 -0 -0 -0 -0 -0 -0 -0 -0 -0 -0 -0 -0 -0 -0 -0 -0 -0 -0 -0 -0 -0 -0 -0 -0 -0 -0 -0 -0 -0 -0 -0 -0 -0 -0 -0
-0 -0 -0 -0 -0 -0 -0 -0 -0 -0 -0 -0 -0 -0 -0 -0 -0 -0 -0 -0 -0 -0 -0 -0 -0 -0 -0 -0 -0 -0 -0 -0 -0 -0 -0 -0 -0 -0 -0 -0 -0 -0 -0 -0 -0
-0 -0 -0 -0 -0 -0 -0 -0 -0 -0 -0 -0 -0 -0 -0 -0 -0 -0 -0 -0 -0 -0 -0 -0 -0 -0 -0 -0 -0 -0 -0 -0 -0 -0 -0 -0 -0 -0 -0 -0 -0 -0 -0 -0 -0
-0 -0 -0 -0 -0 -0 -0 -0 -0 -0 -0 -0 -0 -0 -0 -0 -0 -0 -0 -0 -0 -0 -0 -0 -0 -0 -0 -0 -0 -0 -0 -0 -0 -0 -0 -0 -0 -0 -0 -0 -0 -0 -0 -0 -0
Wind_Speed
40 41 39 36 35 33 32 26 21 19 11 7 7 1 4 4 7 19 22 24 24 20 21 23 24 24 24 26 23 20 27 27 23 18 16 11 13 17 16 18 20 20 18 16 3
40 40 36 37 35 33 29 29 26 23 13 6 6 5 7 5 11 23 19 23 18 17 25 27 28 25 27 27 25 26 31 28 21 17 13 13 12 14 18 18 20 19 14 5 1
39 38 36 36 34 33 32 30 28 26 21 13 10 6 3 3 16 30 25 23 20 18 23 25 26 27 29 27 26 26 30 22 21 18 14 12 15 19 15 18 20 18 4 2 1
38 38 38 37 36 35 32 32 30 23 17 15 11 5 8 15 21 23 18 17 22 15 23 26 28 31 31 31 25 27 22 22 20 19 17 15 16 19 19 19 19 8 2 1 2
37 36 36 37 37 36 32 30 31 29 26 23 15 8 16 15 19 19 16 24 19 19 25 28 33 30 31 27 24 24 21 19 18 19 17 15 19 19 20 18 9 4 4 1 1
34 32 32 34 34 34 32 28 25 26 24 23 20 1 12 13 16 20 15 17 21 19 23 26 32 25 26 25 25 20 17 16 16 19 19 17 19 19 19 15 10 7 6 5 4
30 28 29 29 30 29 27 24 14 22 17 16 15 10 12 8 15 11 20 17 24 22 21 23 23 25 25 24 19 17 18 17 17 21 20 18 20 21 17 13 12 12 10 10 9
25 24 24 23 22 22 19 11 9 11 12 15 18 7 9 8 8 10 16 17 18 24 24 21 17 19 24 19 20 21 20 24 22 21 21 20 23 21 18 15 15 14 14 15 14
20 19 20 18 20 17 14 19 14 13 8 9 9 8 6 9 7 9 11 13 13 18 18 18 18 21 23 25 26 23 29 26 23 20 21 20 20 19 18 18 18 18 18 18 20
15 15 17 16 14 11 9 12 13 15 10 9 9 7 7 8 9 10 8 6 13 15 20 19 19 25 25 29 35 32 27 24 23 23 21 22 21 18 18 19 21 21 22 22 22
12 13 13 15 15 9 15 18 21 19 6 2 10 6 10 12 11 7 9 8 11 14 24 19 24 30 28 24 23 22 22 23 22 21 22 23 24 22 20 20 22 23 24 24 23
12 11 10 13 19 23 24 28 25 21 21 10 4 8 12 12 5 4 8 11 11 16 22 21 25 22 23 21 19 19 19 21 19 19 19 22 26 25 22 22 23 26 28 28 26
12 9 9 9 18 24 29 25 18 20 22 12 11 9 9 7 8 8 11 13 10 15 18 23 21 21 20 19 19 19 21 21 22 18 17 22 26 24 21 21 23 25 27 29 29
10 10 8 8 16 18 20 13 13 16 21 6 8 8 7 14 13 8 12 14 12 15 16 17 17 19 18 20 20 22 19 18 18 20 24 20 27 24 23 23 21 24 24 24 23
9 12 10 14 14 14 13 10 12 15 22 8 12 12 8 13 17 9 8 11 14 16 17 19 17 17 17 20 18 19 16 16 17 19 21 23 25 24 22 21 21 22 22 22 22
9 12 13 14 14 13 10 12 14 18 23 16 13 11 15 9 12 12 11 9 15 6 5 12 13 13 15 12 11 11 14 15 17 20 28 26 26 27 22 22 22 24 22 22 22
13 16 19 17 17 12 15 17 19 22 18 18 18 17 19 12 11 10 10 9 12 13 14 12 14 14 12 13 13 14 17 23 26 27 30 23 26 28 21 21 20 23 23 23 22
16 18 20 19 16 15 18 20 26 22 20 19 17 17 21 16 15 12 14 11 8 11 12 16 19 15 15 15 16 15 18 23 29 29 28 23 28 24 17 19 19 20 23 24 24
17 18 18 14 13 17 20 26 25 23 23 22 19 21 20 17 19 17 14 16 13 13 13 14 17 17 14 15 16 18 19 16 19 22 27 26 26 26 23 21 20 19 21 25 26
18 18 18 11 15 18 23 26 24 22 21 20 21 19 22 19 19 19 17 17 17 14 16 14 14 17 18 17 15 16 11 20 21 28 32 29 30 27 21 17 17 17 23 28 30
19 18 17 13 18 22 26 25 25 21 20 18 19 21 21 21 20 19 18 17 16 17 15 15 14 16 16 16 15 15 17 17 17 22 29 33 29 19 18 16 16 18 27 31 32
19 20 17 18 20 22 24 23 21 21 18 19 19 20 20 20 20 20 21 16 17 17 17 17 14 14 16 18 18 18 18 18 25 27 24 27 31 21 20 20 21 25 33 34 37
18 18 19 20 21 22 21 22 20 20 19 19 19 18 18 19 18 18 8 17 17 16 16 16 19 18 21 22 22 23 23 22 21 22 25 27 26 20 20 19 21 32 36 35 34
18 18 19 24 21 21 20 19 19 17 18 18 18 17 18 18 17 18 18 17 17 16 16 17 18 20 21 22 20 23 24 22 24 27 28 28 28 23 22 25 36 38 31 29 26
20 19 18 17 18 19 17 17 17 16 16 16 16 16 16 16 15 15 17 17 16 17 16 16 18 18 21 23 23 24 23 19 19 23 25 28 27 27 28 36 31 29 26 25 25
18 18 19 19 18 17 15 15 15 14 14 14 14 14 14 14 14 13 14 15 15 16 15 17 13 15 20 21 20 29 22 21 21 24 27 30 37 28 32 21 27 25 24 26 26
18 17 17 17 16 17 16 14 13 13 13 12 12 12 11 12 13 13 12 11 10 9 9 8 8 7 11 10 22 20 16 17 10 6 15 20 10 20 23 24 23 26 26 26 29
Wind_Direction
13 15 19 25 15 22 9 39 54 40 312 284 271 215 129 119 228 226 235 243 248 245 236 234 232 231 230 228 238 246 243 246 250 249 257 262 259 252 254 247 248 253 261 260 238
9 12 30 27 15 20 45 34 59 71 30 6 34 69 102 113 236 230 246 245 254 247 231 226 223 222 225 228 234 238 240 246 254 253 252 247 248 244 245 250 255 257 266 253 196
22 24 32 35 40 26 33 43 38 58 62 43 53 55 70 308 246 228 230 247 254 249 231 226 222 220 223 228 232 238 240 249 251 252 244 238 241 241 248 257 254 252 245 194 134
25 32 38 44 45 41 37 45 41 31 24 36 38 24 273 273 254 241 242 252 248 247 225 219 217 218 221 221 232 232 246 247 246 244 239 235 239 242 251 259 256 261 183 167 115
27 35 43 42 46 48 39 43 49 51 52 63 54 356 273 281 251 234 245 237 248 234 222 215 214 216 216 222 227 233 240 248 246 238 237 237 241 247 254 260 266 244 245 184 350
41 50 50 48 50 47 52 31 40 62 80 74 125 340 283 266 263 238 254 248 230 226 218 214 213 225 219 223 227 232 233 240 244 237 239 238 243 250 256 256 255 253 265 281 304
50 57 57 52 52 54 56 65 335 59 113 126 144 249 194 238 233 263 226 235 215 220 213 212 225 223 217 216 223 220 227 236 243 237 240 242 247 252 258 253 256 261 271 284 295
58 62 59 63 63 62 73 106 138 169 150 132 113 150 204 271 266 233 229 233 229 217 208 212 217 222 218 212 223 225 231 228 240 239 242 243 249 253 254 253 257 267 276 281 291
64 66 63 66 62 68 86 84 105 134 204 300 327 200 249 273 261 263 248 225 216 207 200 211 224 216 212 211 216 227 224 231 234 243 245 246 253 254 255 256 259 267 277 286 290
71 70 67 65 65 74 107 104 99 110 191 212 295 288 258 264 264 274 266 229 203 188 206 215 221 210 212 214 216 221 223 232 235 243 248 246 254 260 259 260 265 273 280 288 296
73 73 76 69 61 79 93 95 97 108 65 109 162 208 208 196 188 291 231 193 193 209 202 216 207 207 215 223 223 223 226 231 242 252 249 251 252 261 267 269 272 278 285 293 300
68 77 85 80 71 75 85 86 97 113 114 131 148 160 168 189 238 298 213 198 212 202 208 207 211 222 223 221 221 224 220 233 243 253 253 258 257 262 271 276 280 283 287 292 300
66 82 93 101 80 77 78 95 116 114 117 129 143 158 178 205 203 217 209 205 207 207 209 206 221 223 217 218 219 230 230 235 243 250 263 267 264 268 280 286 290 294 296 299 301
67 78 99 117 91 87 87 119 137 130 113 163 166 172 225 185 187 224 214 211 215 199 207 211 222 216 218 222 231 228 241 244 245 249 253 274 264 273 282 287 299 303 308 311 318
75 74 89 87 98 95 100 138 161 144 99 188 160 179 223 182 184 218 228 215 204 208 220 212 212 215 219 230 239 234 244 250 255 259 263 272 271 278 288 290 299 313 318 321 326
84 73 85 98 101 109 125 121 139 117 102 146 154 176 169 179 189 201 202 199 197 214 207 208 222 227 228 241 243 235 248 261 266 267 261 271 274 278 287 296 301 311 318 323 329
83 78 83 96 97 123 114 111 105 101 145 144 143 158 149 178 186 193 195 205 215 208 204 217 224 233 241 237 253 257 252 254 257 260 263 281 278 280 298 308 312 315 321 326 330
82 82 85 94 104 115 112 99 84 121 131 157 166 161 151 177 179 196 199 214 233 223 216 221 223 239 253 253 254 261 263 261 259 262 270 284 277 289 307 315 321 325 327 328 329
82 81 84 95 108 109 99 79 89 115 135 139 160 147 160 173 184 192 200 206 227 230 241 240 240 247 259 265 267 265 267 281 278 281 277 280 288 297 305 308 317 326 334 333 332
71 78 77 102 106 103 85 84 96 118 131 147 133 151 141 174 176 189 204 214 219 239 238 253 256 254 260 268 286 282 287 277 282 273 274 282 289 292 307 319 324 327 329 328 327
68 77 77 98 97 85 79 88 101 117 121 128 137 142 147 150 171 194 212 227 236 242 251 252 271 265 272 276 279 283 284 292 295 289 283 285 291 311 309 312 318 325 325 324 324
74 72 74 84 81 82 84 96 107 105 116 118 127 140 147 155 157 169 196 252 257 259 259 266 277 278 278 280 282 285 289 290 284 286 291 293 292 307 304 308 308 313 319 322 322
69 79 71 72 77 80 89 93 97 99 104 110 116 129 142 145 152 158 321 272 280 283 285 284 280 283 283 283 283 282 283 285 290 292 287 289 296 311 310 308 316 315 318 320 324
52 66 75 57 83 88 88 88 90 104 98 105 109 121 125 128 147 144 154 258 285 302 300 298 294 289 289 291 295 290 287 283 283 284 286 285 292 305 309 309 305 310 317 323 333
29 47 55 80 82 89 100 98 90 90 93 100 98 107 109 114 119 132 153 164 194 264 303 309 303 301 295 294 294 292 292 289 281 285 286 294 293 297 303 305 309 313 315 322 325
20 24 26 42 60 78 90 93 98 97 92 91 85 90 89 84 103 113 119 145 153 160 158 184 168 184 216 300 305 288 294 290 286 286 286 289 286 303 275 320 305 307 317 317 320
9 17 14 18 30 38 48 65 82 81 74 73 86 82 74 63 49 50 52 51 58 83 106 67 94 105 180 282 240 225 212 200 198 236 210 212 251 309 311 312 312 309 317 322 321